Weather History for Rome, OR

Change the Weather History Date:

Tuesday, December 10, 2013

  Actual Average Record
Temperature  
Mean Temperature 15 °F 28 °F  
Max Temperature 25 °F 39 °F 59 °F (1993)
Min Temperature 5 °F 18 °F -23 °F (1972)
Degree Days  
Heating Degree Days 50 36  
Month to date heating degree days 473 354  
Since 1 July heating degree days 1991 1967  
Cooling Degree Days 0 0  
Month to date cooling degree days 0 0  
Year to date cooling degree days 878 507  
Moisture  
Dew Point 5 °F    
Average Humidity 65    
Maximum Humidity 80    
Minimum Humidity 50    
Precipitation  
Precipitation 0.00 in 0.03 in 0.26 in (1987)
Month to date precipitation 0.10 0.25  
Year to date precipitation 5.24 8.35  
Sea Level Pressure  
Sea Level Pressure 30.49 in    
Wind  
Wind Speed 10 mph (SE)    
Max Wind Speed 23 mph    
Max Gust Speed 29 mph    
T = Trace of Precipitation, MM = Missing Value Source: NWS Daily Summary

Daily Weather History Graph

Daily Weather History Graph

Search for Another Location

Airport:

Trip Planner

Search our weather history database for the weather conditions in past years. The results will help you decide how hot, cold, wet, or windy it might be!

Date:

Astronomy

Dec. 10, 2013 Rise Set
Actual Time 7:10 AM PST 4:18 PM PST
Civil Twilight 6:38 AM PST 4:50 PM PST
Nautical Twilight 6:03 AM PST 5:25 PM PST
Astronomical Twilight 5:29 AM PST 5:59 PM PST
Moon 12:28 PM PST (12/10) 12:26 AM PST (12/10)
Length of Visible Light 10h 11m
Length of Day
9h 07m
Waxing Gibbous, 63% of the Moon is Illuminated
Dec 10
Waxing Gibbous
Dec 17
Full
Dec 25
Last Quarter
Jan 1
New
Jan 7
First Quarter

Hourly Weather History & Observations

Time (PST) Temp. Windchill Dew Point Humidity Pressure Visibility Wind Dir Wind Speed Gust Speed Precip Events Conditions
12:52 AM 12.0 °F -6.9 °F 1.0 °F 61% 30.48 in - SE 21.9 mph 28.8 mph N/A   Unknown
1:52 AM 12.0 °F 0.5 °F 1.9 °F 64% 30.48 in - SSE 8.1 mph - N/A   Unknown
2:52 AM 8.1 °F - -0.0 °F 70% 30.49 in - Calm Calm - N/A   Unknown
3:52 AM 12.0 °F -3.4 °F 1.0 °F 61% 30.46 in - SSE 13.8 mph - N/A   Unknown
4:52 AM 12.0 °F -6.0 °F 1.0 °F 61% 30.46 in - SE 19.6 mph - N/A   Unknown
5:52 AM 9.0 °F 0.6 °F -0.0 °F 67% 30.50 in - SW 4.6 mph - N/A   Unknown
6:52 AM 12.0 °F -1.3 °F 1.9 °F 64% 30.49 in - SSE 10.4 mph - N/A   Unknown
7:52 AM 14.0 °F -0.2 °F 1.9 °F 59% 30.51 in - SE 12.7 mph - N/A   Unknown
8:52 AM 17.1 °F 2.5 °F 5.0 °F 59% 30.50 in - SE 15.0 mph - N/A   Unknown
9:52 AM 19.0 °F 5.0 °F 8.1 °F 62% 30.50 in - SE 15.0 mph - N/A   Unknown
10:52 AM 23.0 °F 15.8 °F 10.0 °F 58% 30.48 in - SSE 5.8 mph 23.0 mph N/A   Unknown
11:52 AM 25.0 °F 12.6 °F 12.0 °F 58% 30.46 in - SE 15.0 mph 18.4 mph N/A   Unknown
12:52 PM 25.0 °F 13.6 °F 10.9 °F 55% 30.45 in - ESE 12.7 mph - N/A   Unknown
1:52 PM 24.1 °F 17.0 °F 9.0 °F 53% 30.46 in - East 5.8 mph - N/A   Unknown
2:52 PM 21.9 °F 10.4 °F 10.0 °F 60% 30.48 in - East 11.5 mph - N/A   Unknown
3:52 PM 19.9 °F 6.2 °F 8.1 °F 60% 30.47 in - ESE 15.0 mph - N/A   Unknown
4:52 PM 18.0 °F 3.6 °F 6.1 °F 60% 30.48 in - ESE 15.0 mph - N/A   Unknown
5:52 PM 18.0 °F - 8.1 °F 65% 30.48 in - Calm Calm - N/A   Unknown
6:52 PM 19.0 °F 4.5 °F 5.0 °F 54% 30.48 in - SE 16.1 mph - N/A   Unknown
7:52 PM 12.0 °F 4.1 °F 6.1 °F 77% 30.51 in - East 4.6 mph - N/A   Unknown
8:52 PM 12.0 °F 4.1 °F 5.0 °F 73% 30.51 in - East 4.6 mph - N/A   Unknown
9:52 PM 10.9 °F - 5.0 °F 77% 30.51 in - Calm Calm - N/A   Unknown
10:52 PM 8.1 °F 1.4 °F 3.0 °F 80% 30.53 in - SE 3.5 mph - N/A   Unknown
11:52 PM 7.0 °F -1.7 °F 1.9 °F 80% 30.52 in - SSE 4.6 mph - N/A   Unknown